Location: Firdgum
(53.2488°N, 5.5615°E)
Time: 21:41:25
(UTC+00:00)

Cosmos 2263 Rocket - Pass Details

Date: 08 December 2019
Orbit: 824 x 848 km, 71.0° (Epoch: 28 January)

Event Time Altitude Azimuth Distance (km) Brightness Sun altitude
Rises 05:30:13 0° 201° (SSW) 3,359 5.3 -17.9°
Reaches altitude 10° 05:32:39 10° 199° (SSW) 2,427 4.5 -17.5°
Maximum altitude 05:38:10 69° 117° (ESE) 883 2.5 -16.7°
Drops below altitude 10° 05:43:42 10° 35° (NE) 2,436 4.8 -15.9°
Sets 05:46:09 0° 33° (NNE) 3,372 5.5 -15.6°
